DW3800 Weather Reports


time (UTC)temp
C
wind
direction
speed
KPH
gust
KPH
rain 1hr
cm
rain 24hr
cm
rain mn
cm
humidity
%
barometer
mb
20260902204410 30 64 1.6 8.0 0.00 0.15 0.15 59 1014.3
20260902203901 30 220 0.0 3.2 0.00 0.15 0.15 58 1014.2
20260902203356 30 142 0.0 3.2 0.00 0.15 0.15 58 1014.3
20260902202850 30 188 0.0 4.8 0.00 0.15 0.15 59 1014.4
20260902202346 30 2 1.6 3.2 0.00 0.15 0.15 58 1014.2
20260902201842 30 334 3.2 4.8 0.00 0.15 0.15 60 1014.6
20260902201342 30 143 3.2 3.2 0.00 0.15 0.15 59 1014.6
20260902200837 30 352 4.8 9.7 0.00 0.15 0.15 60 1014.7
20260902200332 30 124 1.6 4.8 0.00 0.15 0.15 61 1014.9
20260902195828 29 146 0.0 3.2 0.00 0.15 0.15 62 1014.8
20260902195327 29 254 4.8 8.0 0.00 0.15 0.15 61 1015.0
20260902194822 30 81 0.0 1.6 0.00 0.15 0.15 60 1015.0
20260902194316 29 128 1.6 4.8 0.00 0.15 0.15 61 1015.2
20260902193812 29 109 1.6 3.2 0.00 0.15 0.15 62 1015.2
20260902193308 30 137 0.0 3.2 0.00 0.15 0.15 62 1015.4
20260902192807 30 149 3.2 4.8 0.00 0.15 0.15 61 1015.1
20260902192307 28 112 0.0 4.8 0.00 0.15 0.15 62 1015.2
20260902191805 28 173 1.6 3.2 0.00 0.15 0.15 62 1015.1
20260902191301 28 144 1.6 4.8 0.00 0.15 0.15 63 1015.1
20260902190756 28 157 0.0 3.2 0.00 0.15 0.15 61 1015.4
20260902190255 28 327 3.2 4.8 0.00 0.15 0.15 62 1015.0
20260902185751 28 13 1.6 4.8 0.00 0.15 0.15 63 1015.2
20260902185246 28 172 1.6 4.8 0.00 0.15 0.15 62 1015.2
20260902184742 28 137 3.2 4.8 0.00 0.15 0.15 63 1015.1
20260902184243 28 175 3.2 4.8 0.00 0.15 0.15 63 1015.1
20260902183738 28 157 0.0 1.6 0.00 0.15 0.15 64 1015.2
20260902183234 28 12 3.2 3.2 0.00 0.15 0.15 62 1015.2
20260902182730 28 51 1.6 3.2 0.00 0.15 0.15 63 1015.1
20260902182227 27 140 0.0 3.2 0.00 0.15 0.15 67 1015.5
20260902181723 28 141 0.0 3.2 0.00 0.15 0.15 65 1015.4
20260902181222 27 158 0.0 8.0 0.00 0.15 0.15 67 1015.5
20260902180717 27 35 3.2 4.8 0.00 0.15 0.15 66 1015.9
20260902180213 27 148 0.0 1.6 0.00 0.15 0.15 68 1015.8
20260902175708 27 92 3.2 4.8 0.00 0.15 0.15 68 1016.1
20260902175204 27 10 3.2 3.2 0.00 0.15 0.15 67 1016.1
20260902174659 27 144 1.6 8.0 0.00 0.15 0.15 68 1016.3
20260902174155 27 131 3.2 3.2 0.00 0.15 0.15 69 1016.2
20260902173650 27 116 0.0 4.8 0.00 0.15 0.15 68 1016.3
20260902173145 26 85 0.0 3.2 0.00 0.15 0.15 68 1016.6
20260902172639 26 141 3.2 4.8 0.00 0.15 0.15 69 1016.6
20260902172138 26 151 1.6 8.0 0.00 0.15 0.15 71 1016.8
20260902171634 26 204 1.6 4.8 0.00 0.15 0.15 70 1016.8
20260902171130 26 142 4.8 8.0 0.00 0.15 0.15 69 1016.6
20260902170625 25 137 1.6 4.8 0.00 0.15 0.15 72 1016.4
20260902170121 26 105 0.0 8.0 0.00 0.15 0.15 72 1016.2
20260902165621 26 89 0.0 4.8 0.00 0.15 0.15 71 1016.4
20260902165115 25 183 3.2 3.2 0.00 0.15 0.15 71 1016.3
20260902164610 26 135 3.2 3.2 0.00 0.15 0.15 72 1016.4
20260902164109 26 118 0.0 3.2 0.00 0.15 0.15 70 1016.4
20260902163605 25 101 1.6 1.6 0.00 0.15 0.15 72 1016.3
20260902163103 25 134 0.0 1.6 0.00 0.15 0.15 72 1016.3
20260902162603 25 159 1.6 3.2 0.00 0.15 0.15 73 1016.4
20260902162057 25 99 1.6 3.2 0.00 0.15 0.15 73 1016.5
20260902161552 25 10 0.0 3.2 0.00 0.15 0.15 74 1016.5
20260902161048 25 122 3.2 4.8 0.00 0.15 0.15 73 1016.2
20260902160544 25 167 4.8 4.8 0.00 0.15 0.15 73 1016.1
20260902160039 25 122 1.6 3.2 0.00 0.15 0.15 74 1016.1
20260902155532 24 216 6.4 9.7 0.00 0.15 0.15 75 1015.9
20260902155031 23 119 0.0 1.6 0.00 0.15 0.15 77 1016.0
20260902154527 24 89 0.0 4.8 0.00 0.15 0.15 77 1015.9
20260902154021 24 142 1.6 3.2 0.00 0.15 0.15 76 1016.3
20260902153520 23 100 3.2 4.8 0.00 0.15 0.15 77 1016.4
20260902153016 23 77 0.0 3.2 0.00 0.15 0.15 77 1016.1
20260902152512 23 87 0.0 3.2 0.00 0.15 0.15 77 1016.2
20260902152007 23 114 3.2 3.2 0.00 0.15 0.15 78 1016.1
20260902151503 23 113 3.2 3.2 0.00 0.15 0.15 79 1016.2
20260902150956 23 108 0.0 1.6 0.00 0.15 0.15 80 1016.0
20260902150452 23 107 1.6 3.2 0.00 0.15 0.15 80 1015.9
20260902145952 22 102 0.0 3.2 0.00 0.15 0.15 81 1016.1
20260902145448 22 117 1.6 3.2 0.00 0.15 0.15 82 1015.9
20260902144947 22 101 1.6 1.6 0.00 0.15 0.15 83 1016.1
20260902144444 22 71 0.0 3.2 0.00 0.15 0.15 82 1015.9
20260902143938 22 82 0.0 1.6 0.00 0.15 0.15 82 1016.0
20260902143434 22 84 0.0 1.6 0.00 0.15 0.15 83 1016.1
20260902142928 21 111 0.0 1.6 0.00 0.15 0.15 85 1016.1
20260902142425 21 144 1.6 3.2 0.00 0.15 0.15 85 1016.2
20260902141920 21 98 1.6 3.2 0.00 0.15 0.15 85 1016.2
20260902141415 22 97 3.2 3.2 0.00 0.15 0.15 84 1016.2
20260902140914 21 78 0.0 1.6 0.00 0.15 0.15 86 1016.3
20260902140410 21 325 1.6 1.6 0.00 0.15 0.15 87 1016.2
20260902135909 20 88 0.0 1.6 0.00 0.15 0.15 88 1016.2
20260902135406 20 87 0.0 4.8 0.00 0.15 0.15 88 1016.3
20260902134904 20 104 0.0 1.6 0.00 0.15 0.15 88 1016.2
20260902134400 20 20 1.6 1.6 0.00 0.15 0.15 89 1016.1
20260902133854 20 72 0.0 3.2 0.00 0.15 0.15 91 1016.2
20260902133349 20 97 0.0 0.0 0.00 0.15 0.15 91 1016.5
20260902132844 19 92 0.0 0.0 0.00 0.15 0.15 93 1016.4
20260902132339 19 58 0.0 1.6 0.00 0.15 0.15 94 1016.2
20260902131835 18 15 0.0 3.2 0.00 0.15 0.15 95 1016.1
20260902131332 18 87 0.0 1.6 0.00 0.15 0.15 96 1016.1
20260902130830 18 62 1.6 3.2 0.00 0.15 0.15 96 1016.2
20260902130327 18 88 1.6 1.6 0.00 0.15 0.15 96 1016.2
20260902125821 18 101 0.0 8.0 0.00 0.15 0.15 96 1016.1
20260902125317 18 125 0.0 1.6 0.00 0.15 0.15 97 1016.4
20260902124813 17 80 0.0 1.6 0.00 0.15 0.15 97 1016.4
20260902124309 17 126 0.0 1.6 0.00 0.15 0.15 97 1016.1
20260902123804 17 137 0.0 0.0 0.00 0.15 0.15 97 1016.3
20260902123300 17 56 0.0 1.6 0.00 0.15 0.15 97 1016.2
20260902122759 17 1 3.2 4.8 0.00 0.15 0.15 97 1016.1
20260902122255 17 355 0.0 3.2 0.00 0.15 0.15 97 1016.2
20260902121755 17 75 0.0 4.8 0.00 0.15 0.15 97 1016.4
20260902121250 17 17 1.6 3.2 0.00 0.15 0.15 97 1016.4
20260902120745 17 112 0.0 3.2 0.00 0.15 0.15 97 1016.4
20260902120241 17 90 0.0 1.6 0.00 0.15 0.15 97 1016.1
20260902115736 17 5 1.6 8.0 0.00 0.15 0.15 97 1016.3
20260902115232 17 35 1.6 1.6 0.00 0.15 0.15 97 1016.3
20260902114728 17 35 0.0 4.8 0.00 0.15 0.15 97 1016.4
20260902114224 17 135 0.0 0.0 0.00 0.15 0.15 97 1016.4
20260902113723 17 133 0.0 1.6 0.00 0.15 0.15 97 1016.5
20260902113219 17 91 0.0 4.8 0.00 0.15 0.15 97 1017.0
20260902112713 17 103 0.0 3.2 0.00 0.15 0.15 97 1017.0
20260902112210 17 144 1.6 3.2 0.00 0.15 0.15 97 1016.8
20260902111705 17 127 0.0 1.6 0.00 0.15 0.15 97 1017.0
20260902111202 17 122 0.0 4.8 0.00 0.15 0.15 98 1017.1
20260902110657 17 99 0.0 3.2 0.00 0.15 0.15 98 1017.2
20260902110153 17 149 0.0 4.8 0.00 0.15 0.15 98 1016.9
20260902105652 17 161 1.6 3.2 0.00 0.15 0.15 98 1017.0
20260902105148 17 106 0.0 8.0 0.00 0.15 0.15 98 1016.8
20260902104643 17 196 3.2 8.0 0.00 0.15 0.15 98 1017.0
20260902104138 17 159 3.2 4.8 0.00 0.15 0.15 98 1016.8
20260902103637 17 165 0.0 4.8 0.00 0.15 0.15 98 1016.8
20260902103133 17 171 1.6 4.8 0.00 0.15 0.15 98 1016.5
20260902102629 17 177 1.6 8.0 0.00 0.15 0.15 98 1016.8
20260902102126 17 146 1.6 3.2 0.00 0.15 0.15 98 1016.6
20260902101621 17 246 0.0 1.6 0.00 0.15 0.15 98 1016.5
20260902101120 17 167 0.0 3.2 0.00 0.15 0.15 98 1016.5
20260902100615 17 206 0.0 1.6 0.00 0.15 0.15 98 1016.0
20260902100109 17 155 0.0 1.6 0.00 0.15 0.15 98 1016.1
20260902095609 17 117 0.0 3.2 0.00 0.15 0.15 98 1016.0
20260902095103 17 113 0.0 1.6 0.00 0.15 0.15 98 1016.1
20260902094558 17 121 0.0 9.7 0.00 0.15 0.15 98 1015.9
20260902094054 17 117 3.2 4.8 0.00 0.15 0.15 98 1015.8
20260902093553 17 136 0.0 1.6 0.00 0.15 0.15 98 1015.8
20260902093048 17 134 0.0 3.2 0.00 0.15 0.15 98 1015.6
20260902092538 17 27 0.0 4.8 0.00 0.15 0.15 98 1015.1
20260902092032 17 115 0.0 1.6 0.00 0.15 0.15 98 1014.7
20260902091528 17 241 1.6 4.8 0.00 0.15 0.15 98 1014.3
20260902091023 17 357 3.2 8.0 0.00 0.15 0.15 98 1014.5
20260902090519 17 284 1.6 8.0 0.00 0.15 0.15 98 1014.5
20260902090018 17 337 3.2 12.9 0.00 0.15 0.15 98 1014.4
20260902085519 17 13 1.6 8.0 0.00 0.15 0.15 98 1015.0
20260902085014 17 113 0.0 3.2 0.00 0.15 0.15 98 1015.0
20260902084510 17 104 0.0 0.0 0.00 0.15 0.15 98 1015.2
20260902084005 18 116 0.0 0.0 0.00 0.15 0.15 98 1015.5
20260902083501 18 4 1.6 3.2 0.00 0.15 0.15 98 1015.8
20260902082955 18 88 0.0 3.2 0.00 0.15 0.15 98 1015.6
20260902082450 18 55 1.6 4.8 0.00 0.15 0.15 98 1016.2
20260902081947 18 296 1.6 8.0 0.00 0.15 0.15 97 1015.8
20260902081443 18 45 0.0 4.8 0.00 0.15 0.15 97 1016.2
20260902080938 18 151 0.0 8.0 0.00 0.15 0.15 97 1016.3
20260902080434 18 121 0.0 3.2 0.00 0.15 0.15 97 1016.6
20260902075933 18 340 0.0 3.2 0.00 0.15 0.15 97 1016.2
20260902075430 18 130 0.0 3.2 0.00 0.15 0.15 96 1015.9
20260902074925 18 72 1.6 3.2 0.18 0.15 0.15 96 1015.4
20260902074420 18 107 0.0 3.2 0.18 0.15 0.15 96 1015.1
20260902073915 18 117 0.0 3.2 0.00 0.13 0.13 95 1015.6
20260902073411 18 110 0.0 1.6 0.13 0.13 0.13 94 1016.0
20260902072907 18 35 1.6 1.6 0.18 0.10 0.10 93 1016.6
20260902072403 19 32 3.2 4.8 0.36 0.10 0.10 92 1016.9
20260902071859 19 325 0.0 4.8 0.18 0.08 0.08 91 1017.3
20260902071358 19 75 1.6 4.8 0.13 0.05 0.05 90 1017.7
20260902070855 20 172 1.6 3.2 0.13 0.05 0.05 90 1018.0
20260902070350 20 77 1.6 8.0 0.18 0.03 0.03 88 1018.5
20260902065848 20 118 3.2 12.9 0.18 0.03 0.03 87 1018.5
20260902065344 20 156 1.6 3.2 0.00 0.00 0.00 87 1018.9
20260902064839 21 150 0.0 0.0 0.00 0.00 0.00 83 1018.0
20260902064335 21 236 0.0 0.0 0.00 0.00 0.00 79 1018.2
20260902063830 22 196 1.6 3.2 0.00 0.00 0.00 76 1018.2
20260902063325 22 227 0.0 1.6 0.00 0.00 0.00 74 1018.0
20260902062819 22 202 0.0 1.6 0.00 0.00 0.00 71 1017.5
20260902062314 22 259 1.6 9.7 0.00 0.00 0.00 71 1017.0
20260902061813 22 258 1.6 4.8 0.00 0.00 0.00 71 1016.5
20260902061309 22 314 1.6 3.2 0.00 0.00 0.00 72 1016.4
20260902060805 22 298 1.6 3.2 0.00 0.00 0.00 72 1016.0
20260902060301 22 295 1.6 3.2 0.00 0.00 0.00 72 1016.1
20260902055755 22 245 0.0 0.0 0.00 0.00 0.00 73 1015.7
20260902055247 22 307 1.6 1.6 0.00 0.00 0.00 74 1015.7
20260902054747 22 254 0.0 0.0 0.00 0.00 0.00 74 1016.1
20260902054242 22 132 0.0 1.6 0.00 0.00 0.00 73 1016.3
20260902053737 22 31 0.0 1.6 0.00 0.00 0.00 72 1016.3
20260902053236 22 57 0.0 1.6 0.00 0.00 0.00 71 1016.4
20260902052731 22 168 0.0 0.0 0.00 0.00 0.00 70 1017.0
20260902052227 22 177 0.0 0.0 0.00 0.00 0.00 69 1016.8
20260902051726 22 230 0.0 0.0 0.00 0.00 0.00 68 1016.7
20260902051220 22 246 0.0 3.2 0.00 0.00 0.00 68 1016.7
20260902050715 22 318 0.0 3.2 0.00 0.00 0.00 67 1016.6
20260902050211 22 167 0.0 0.0 0.00 0.00 0.00 67 1016.5
20260902045711 22 253 1.6 1.6 0.00 0.00 0.00 66 1016.3
20260902045207 23 186 0.0 1.6 0.00 0.00 0.00 65 1016.3
20260902044702 23 313 1.6 1.6 0.00 0.00 0.00 65 1016.3
20260902044158 22 295 1.6 3.2 0.00 0.00 0.00 66 1016.2
20260902043653 22 262 0.0 0.0 0.00 0.00 0.00 67 1016.3
20260902043148 22 240 0.0 1.6 0.00 0.00 0.00 67 1016.1
20260902042647 22 197 0.0 0.0 0.00 0.00 0.00 67 1016.0
20260902042143 22 247 0.0 0.0 0.00 0.00 0.00 67 1016.0
20260902041642 22 260 0.0 0.0 0.00 0.00 0.00 66 1016.3
20260902041137 22 266 0.0 3.2 0.00 0.00 0.00 66 1016.3
20260902040636 22 159 0.0 1.6 0.00 0.00 0.00 66 1015.9
20260902040132 22 219 0.0 4.8 0.00 0.00 0.00 68 1015.8
20260902035630 22 298 1.6 3.2 0.00 0.00 0.00 66 1015.7
20260902035126 22 271 1.6 1.6 0.00 0.00 0.00 67 1016.4
20260902034625 22 245 0.0 0.0 0.00 0.00 0.00 66 1016.2
20260902034119 22 231 0.0 0.0 0.00 0.00 0.00 66 1016.6
20260902033618 23 235 0.0 0.0 0.00 0.00 0.00 67 1016.6
20260902033114 23 257 0.0 1.6 0.00 0.00 0.00 64 1016.7
20260902032612 23 241 0.0 0.0 0.00 0.00 0.00 65 1016.8
20260902032107 23 232 0.0 0.0 0.00 0.00 0.00 66 1016.8
20260902031601 23 342 0.0 3.2 0.00 0.00 0.00 65 1016.9
20260902031057 23 266 0.0 1.6 0.00 0.00 0.00 67 1016.7
20260902030552 23 250 0.0 0.0 0.00 0.00 0.00 67 1016.8
20260902030052 23 279 1.6 1.6 0.00 0.00 0.00 66 1016.5
20260902025552 23 244 0.0 0.0 0.00 0.00 0.00 66 1016.6
20260902025047 23 244 0.0 0.0 0.00 0.00 0.00 65 1016.5
20260902024543 23 245 0.0 0.0 0.00 0.00 0.00 65 1016.6
20260902024043 23 252 0.0 0.0 0.00 0.00 0.00 65 1016.3
20260902023538 23 201 0.0 0.0 0.00 0.00 0.00 66 1016.4
20260902023033 23 282 0.0 0.0 0.00 0.00 0.00 64 1016.5
20260902022527 23 211 0.0 0.0 0.00 0.00 0.00 65 1016.4
20260902022023 23 211 0.0 0.0 0.00 0.00 0.00 64 1016.5
20260902021519 23 211 0.0 0.0 0.00 0.00 0.00 63 1016.5
20260902021014 23 209 0.0 0.0 0.00 0.00 0.00 64 1016.5
20260902020509 23 221 0.0 0.0 0.00 0.00 0.00 65 1016.5
20260902020005 24 228 0.0 0.0 0.00 0.00 0.00 64 1016.6
20260902015501 24 244 0.0 0.0 0.00 0.00 0.00 65 1016.5
20260902014956 24 221 0.0 0.0 0.00 0.00 0.00 65 1016.2
20260902014452 24 196 0.0 0.0 0.00 0.00 0.00 64 1016.3
20260902013952 25 195 0.0 0.0 0.00 0.00 0.00 63 1016.2
20260902013447 25 211 0.0 0.0 0.00 0.00 0.00 63 1016.2
20260902012942 25 210 0.0 0.0 0.00 0.00 0.00 63 1016.1
20260902012438 25 216 0.0 0.0 0.00 0.00 0.00 63 1016.2
20260902011933 25 216 0.0 0.0 0.00 0.00 0.00 62 1016.1
20260902011428 25 191 0.0 0.0 0.00 0.00 0.00 62 1016.2
20260902010928 25 216 0.0 0.0 0.00 0.00 0.00 62 1015.9
20260902010423 25 208 0.0 0.0 0.00 0.00 0.00 62 1015.9
20260902005922 26 202 0.0 0.0 0.00 0.00 0.00 61 1016.0
20260902005421 26 220 0.0 0.0 0.00 0.00 0.00 60 1015.9
20260902004918 26 220 0.0 0.0 0.00 0.00 0.00 61 1016.0
20260902004417 26 219 0.0 0.0 0.00 0.00 0.00 63 1016.0
20260902003912 26 215 0.0 0.0 0.00 0.00 0.00 64 1016.0
20260902003407 26 217 0.0 0.0 0.00 0.00 0.00 66 1016.1
20260902002903 26 221 0.0 0.0 0.00 0.00 0.00 66 1016.0
20260902002403 26 206 0.0 0.0 0.00 0.00 0.00 64 1016.1
20260902001857 27 213 0.0 1.6 0.00 0.00 0.00 63 1016.0
20260902001352 27 217 0.0 0.0 0.00 0.00 0.00 63 1016.1
20260902000847 27 205 0.0 0.0 0.00 0.00 0.00 62 1016.1
20260902000344 27 233 0.0 1.6 0.00 0.00 0.00 62 1016.4
20260901235837 27 198 0.0 1.6 0.00 0.00 0.00 61 1016.1
20260901235337 27 232 0.0 1.6 0.00 0.00 0.00 61 1016.2
20260901234832 27 186 1.6 1.6 0.00 0.00 0.00 60 1016.2
20260901234326 27 200 0.0 1.6 0.00 0.00 0.00 60 1016.3
20260901233822 27 217 0.0 0.0 0.00 0.00 0.00 60 1016.0
20260901233317 27 201 0.0 1.6 0.00 0.00 0.00 59 1016.2
20260901232813 28 218 3.2 4.8 0.00 0.00 0.00 58 1016.4
20260901232307 28 213 3.2 4.8 0.00 0.00 0.00 58 1016.3
20260901231804 28 246 3.2 4.8 0.00 0.00 0.00 57 1016.3
20260901231300 28 241 4.8 8.0 0.00 0.00 0.00 57 1016.3
20260901230756 28 189 1.6 3.2 0.00 0.00 0.00 56 1015.9
20260901230255 28 240 1.6 3.2 0.00 0.00 0.00 56 1016.0
20260901225750 28 193 3.2 3.2 0.00 0.00 0.00 55 1016.1
20260901225244 28 175 0.0 4.8 0.00 0.00 0.00 56 1016.2
20260901224741 28 242 1.6 3.2 0.00 0.00 0.00 56 1016.1
20260901224236 28 225 3.2 4.8 0.00 0.00 0.00 55 1016.1
20260901223732 28 236 1.6 4.8 0.00 0.00 0.00 55 1016.1
20260901223227 29 204 1.6 4.8 0.00 0.00 0.00 55 1016.3
20260901222723 29 179 1.6 3.2 0.00 0.00 0.00 54 1016.1
20260901222219 29 191 4.8 8.0 0.00 0.00 0.00 52 1016.1
20260901221715 29 271 4.8 4.8 0.00 0.00 0.00 50 1016.2
20260901221211 29 167 4.8 4.8 0.00 0.00 0.00 49 1016.2
20260901220709 29 245 8.0 9.7 0.00 0.00 0.00 48 1016.0
20260901220209 29 213 4.8 8.0 0.00 0.00 0.00 48 1016.0
20260901215708 29 215 1.6 4.8 0.00 0.00 0.00 49 1016.2
20260901215202 30 228 3.2 4.8 0.00 0.00 0.00 47 1016.0
20260901214700 30 200 1.6 9.7 0.00 0.00 0.00 47 1015.8
20260901214154 30 165 6.4 11.3 0.00 0.00 0.00 44 1016.0
20260901213649 30 238 3.2 4.8 0.00 0.00 0.00 43 1016.0
20260901213144 30 196 0.0 8.0 0.00 0.00 0.00 42 1015.8
20260901212643 30 160 4.8 11.3 0.00 0.00 0.00 43 1016.0
20260901212139 30 206 4.8 9.7 0.00 0.00 0.00 43 1015.6
20260901211634 30 172 1.6 9.7 0.00 0.00 0.00 45 1015.8
20260901211131 30 178 1.6 4.8 0.00 0.00 0.00 45 1015.9
20260901210626 30 214 0.0 3.2 0.00 0.00 0.00 44 1015.7
20260901210122 30 197 1.6 8.0 0.00 0.00 0.00 45 1015.9
20260901205617 30 167 1.6 4.8 0.00 0.00 0.00 46 1015.8
20260901205111 30 232 4.8 11.3 0.00 0.00 0.00 44 1016.1